Theta_e
315 315 315 315 316 316 316 316 316 315 314 314 313 313 312 311 311 312 312 313 315 313 312 314 315 316 316 316 316 316 316 316 316 315 317 320 318 318 319 320 321 324 330 336 338 337 340 339 340 346 346 346 349 350 350 349 346 346 349 351 352 353 354 354 355 354 352 353 354 351 350 351 353 352 352 353 354 353 352 350 351 351 350 350 351 349 350 351
315 315 315 315 316 316 316 316 317 316 316 315 314 313 313 312 312 311 311 313 315 314 312 313 315 315 316 316 316 316 316 316 315 317 322 323 317 317 319 320 321 323 327 332 334 335 340 341 343 349 349 349 351 351 351 348 345 347 349 352 351 353 353 352 352 350 350 352 352 351 351 350 351 352 352 355 355 353 353 352 351 351 349 350 351 350 351 351
315 315 315 315 315 316 316 317 317 317 317 316 315 314 313 313 312 312 312 312 315 314 312 313 314 315 316 316 316 316 316 316 317 323 331 327 318 318 319 320 320 322 325 330 329 332 339 341 345 350 349 350 353 351 350 347 347 347 350 354 352 350 350 349 349 349 350 350 350 350 350 350 351 352 354 356 355 354 353 352 352 351 349 350 352 351 350 346
316 316 316 315 315 315 316 317 317 317 317 317 317 315 314 313 313 312 311 312 315 315 312 313 314 315 316 315 316 316 315 319 326 331 333 328 321 318 320 319 320 323 325 329 331 335 339 341 346 350 351 352 353 351 350 349 349 349 350 354 351 348 350 350 349 350 350 349 350 351 351 351 351 351 354 355 356 356 352 350 352 350 348 351 352 351 348 342
317 316 316 316 316 315 315 316 317 317 317 317 318 317 315 314 313 313 312 312 315 315 313 312 314 314 315 315 316 315 315 325 333 329 328 327 322 320 321 319 320 325 326 330 335 339 341 343 348 352 352 352 353 353 353 351 350 351 351 352 350 347 351 351 348 349 349 349 350 351 352 351 351 352 354 355 355 355 350 349 352 349 348 350 351 349 346 342
319 318 317 316 316 316 315 316 316 317 317 317 317 317 317 315 314 313 312 312 314 315 313 312 314 314 315 316 315 315 317 326 329 325 325 325 322 322 322 318 324 328 328 333 338 340 343 346 349 352 352 353 353 354 355 353 351 354 354 352 353 351 353 351 348 350 349 350 350 351 352 351 353 354 353 353 353 352 348 350 351 348 347 348 349 348 346 344
321 320 319 318 317 316 316 316 316 316 317 317 318 318 318 317 315 314 313 312 313 315 314 312 314 314 315 315 315 316 317 322 327 327 324 321 323 324 321 320 328 330 329 336 340 341 345 348 350 352 353 354 354 354 355 355 353 355 356 354 353 353 353 351 350 350 349 350 349 349 352 351 354 355 353 352 351 349 349 351 351 347 346 348 349 348 347 344
321 320 320 320 319 318 317 317 316 316 316 317 317 318 317 318 316 314 313 312 313 315 314 312 313 314 314 315 315 316 318 325 330 328 322 321 323 322 320 325 330 329 330 337 340 343 347 350 351 352 354 355 355 355 355 356 355 354 355 353 353 353 353 351 350 349 350 350 347 349 351 349 352 353 351 352 351 350 350 351 349 345 347 349 348 348 348 345
320 320 320 320 320 319 319 318 317 316 316 317 317 318 318 318 317 316 314 313 312 315 315 312 313 313 314 315 315 317 323 331 334 327 321 322 323 320 323 330 330 328 332 338 341 343 349 352 352 353 354 354 355 355 356 356 355 354 354 353 351 352 352 351 350 350 351 350 348 350 351 348 350 352 353 351 352 351 350 352 347 343 348 349 349 348 347 345
319 319 319 320 319 320 320 319 318 317 317 317 317 317 318 318 318 317 315 313 313 314 315 312 313 313 314 315 315 321 326 332 336 326 320 322 322 324 328 332 330 326 331 340 342 344 349 351 352 352 353 354 353 354 356 354 352 353 352 351 349 350 351 351 351 350 351 352 350 351 352 350 349 354 357 351 351 351 349 352 347 342 347 349 350 349 346 345
319 320 320 319 319 319 319 319 320 319 318 317 317 317 318 318 318 317 316 314 313 314 315 313 312 313 314 314 316 323 325 330 335 326 319 323 321 327 332 333 331 326 330 339 343 344 348 351 352 353 355 354 351 351 354 352 351 352 351 353 351 350 351 350 351 350 352 354 350 352 354 351 351 358 358 351 351 352 352 353 348 343 346 348 349 349 347 345
320 320 320 320 320 320 319 319 320 320 319 318 317 317 317 318 317 317 316 315 313 314 315 313 312 313 314 314 314 319 320 324 331 325 319 322 321 328 333 332 332 330 330 338 342 346 350 353 353 355 355 351 350 352 351 349 351 352 351 358 356 352 352 351 351 350 352 355 350 351 355 353 356 359 355 352 352 354 354 354 349 343 343 347 348 348 348 345
320 320 319 320 320 320 319 319 319 319 320 319 318 317 317 318 317 317 317 315 314 313 315 313 312 313 313 315 315 318 318 320 329 324 318 321 320 327 331 330 331 329 333 341 344 348 352 354 354 355 355 351 349 350 350 348 351 355 354 359 364 362 356 351 350 350 352 354 351 352 356 359 360 355 352 354 354 355 355 352 350 344 341 345 347 348 348 346
319 319 319 319 320 321 320 319 319 319 320 319 319 318 318 318 317 318 317 316 314 313 315 314 312 312 313 315 316 318 317 320 328 325 319 321 320 326 330 329 329 328 335 344 348 350 353 355 354 354 355 353 349 347 353 353 355 360 355 357 364 360 355 352 349 352 356 352 351 354 355 362 363 353 351 355 354 354 352 351 351 343 340 344 345 346 348 347
318 318 318 318 319 320 320 320 319 318 319 320 320 318 318 318 317 317 316 315 314 313 315 314 312 314 316 316 316 318 318 320 328 326 321 321 320 324 329 329 329 329 336 346 352 352 352 352 353 354 354 351 347 347 354 357 360 359 350 352 360 355 356 359 350 351 358 354 351 354 355 362 363 354 351 354 355 353 351 351 349 342 339 342 343 345 347 346
318 318 318 318 318 319 320 320 319 318 319 320 319 319 318 318 317 317 316 315 314 314 314 314 315 317 320 320 317 321 320 321 329 328 321 321 320 321 327 329 329 330 335 346 352 353 352 351 350 351 349 347 348 350 351 352 357 356 346 350 358 357 360 363 354 350 354 354 352 353 357 363 362 354 349 353 355 352 351 351 348 341 340 341 341 343 345 346
317 317 317 317 317 318 319 319 319 319 319 319 319 319 318 318 317 316 315 314 314 314 313 316 320 319 320 322 320 321 321 321 328 329 323 320 320 320 324 328 329 330 335 343 350 351 351 349 349 349 348 350 351 350 349 348 353 355 348 348 353 357 358 360 360 354 350 355 357 354 356 360 358 354 350 352 354 352 350 350 347 342 340 341 341 341 343 344
317 317 317 317 318 318 318 319 319 319 319 319 319 319 318 319 320 319 317 315 314 314 313 316 320 319 317 319 320 322 323 323 328 330 326 321 322 323 323 327 328 329 333 338 342 344 344 345 347 350 350 353 353 347 347 349 349 349 348 348 350 352 356 360 363 358 353 355 358 356 357 357 354 353 351 352 354 351 349 350 348 343 340 342 342 341 341 342
316 316 316 317 317 317 318 318 319 319 319 319 319 318 319 320 321 321 317 314 315 316 318 318 317 317 317 317 320 323 321 322 327 330 328 324 324 326 326 327 328 329 332 334 337 337 340 344 347 350 351 352 352 346 346 348 345 345 346 347 346 345 352 361 362 356 353 355 356 356 358 357 354 354 351 351 354 352 349 350 349 344 341 342 342 342 341 341
314 315 316 316 317 317 318 318 319 319 318 319 318 317 319 318 320 322 318 315 318 320 321 320 318 317 318 317 320 322 321 322 326 329 330 326 326 327 328 330 331 333 335 338 341 339 340 348 350 350 350 349 348 345 345 346 344 344 344 343 344 339 343 357 362 354 352 355 355 355 355 356 354 354 352 351 354 353 350 349 348 346 343 342 343 343 343 342
313 314 315 316 316 317 318 318 319 319 318 319 318 318 319 318 319 322 320 319 321 322 322 322 321 320 320 321 321 322 322 324 326 329 330 328 327 328 330 335 339 341 340 340 344 343 344 350 350 348 348 346 346 345 345 345 345 345 344 342 341 338 340 352 361 354 351 355 356 354 355 355 353 353 353 351 355 355 352 350 349 347 345 343 343 343 344 343
311 313 314 315 316 317 317 318 318 319 318 319 318 319 320 320 320 322 322 322 322 321 323 322 321 322 322 322 322 322 322 323 325 329 331 330 329 328 330 337 342 344 342 343 347 348 348 349 347 345 345 345 346 345 344 345 345 345 344 342 340 343 346 352 358 354 350 354 359 357 355 356 353 353 354 352 353 354 352 351 350 348 346 345 344 344 344 344
310 312 313 314 316 317 317 318 319 318 318 318 319 319 320 320 321 322 322 323 324 322 322 323 322 322 322 322 322 322 321 322 324 329 332 330 329 328 330 335 340 342 344 346 348 348 348 348 346 344 344 346 347 345 345 345 344 345 344 340 340 346 348 349 355 356 351 354 361 359 356 357 357 356 356 353 350 352 353 352 350 349 348 347 345 345 345 345
309 311 312 314 316 317 317 318 318 318 318 318 319 319 321 321 321 322 323 324 326 324 321 322 322 322 322 323 322 322 322 322 324 328 331 331 328 329 332 334 338 341 343 346 347 347 347 345 343 343 344 347 346 345 345 343 341 343 343 341 339 342 348 353 357 357 354 354 359 358 355 357 359 359 359 354 351 352 352 352 352 350 349 349 346 346 347 347
308 309 312 313 316 318 317 317 318 318 318 318 319 320 321 320 321 322 323 324 325 324 322 322 322 322 321 322 322 322 323 322 323 326 330 331 329 331 335 334 337 340 341 343 346 346 347 343 342 344 344 344 344 344 342 340 340 339 342 344 340 340 354 361 358 356 355 354 356 355 352 356 361 359 359 357 355 354 353 352 352 351 350 350 348 347 346 348
308 309 311 312 315 318 317 317 318 317 318 318 319 322 321 320 321 321 324 330 328 325 324 323 322 323 321 322 322 322 322 323 324 324 328 331 329 331 337 337 337 339 339 341 343 343 343 342 341 344 343 341 341 341 339 340 338 336 341 345 340 344 359 362 356 355 357 355 355 352 349 352 358 359 358 358 357 355 354 354 352 350 351 350 349 349 347 347
309 309 310 312 315 317 317 317 316 316 318 318 319 322 320 320 321 319 325 330 326 323 324 322 320 321 322 321 322 322 322 323 323 324 327 331 330 331 336 338 337 337 337 337 337 337 338 339 339 340 339 339 339 337 338 340 336 337 345 345 343 351 361 360 354 354 358 354 351 352 347 344 349 355 356 356 358 357 356 354 353 350 350 350 350 350 349 347
310 310 311 313 314 315 316 317 317 317 317 318 320 321 321 320 321 323 326 325 322 322 324 321 320 320 322 323 322 323 323 323 324 324 325 329 332 333 335 336 337 337 335 336 336 336 336 338 339 338 337 336 337 335 339 340 337 341 344 342 345 353 357 355 352 352 353 347 345 349 345 344 351 357 354 354 358 358 357 355 353 351 350 350 350 350 350 348
311 311 312 313 315 315 316 317 318 318 317 318 319 321 321 319 320 325 327 322 322 324 324 321 321 320 322 323 323 322 322 323 322 323 326 330 333 335 335 334 334 334 333 334 337 335 335 336 335 336 337 337 336 335 338 342 340 341 341 341 345 350 352 352 353 353 350 345 345 345 343 343 352 359 355 353 357 356 356 355 352 350 350 350 350 350 350 350
313 314 313 315 316 316 316 318 318 318 318 317 319 321 320 320 325 327 321 319 323 325 321 320 320 320 323 323 323 323 322 321 320 323 327 333 335 333 333 331 330 331 332 332 333 333 332 331 330 334 335 335 335 333 335 339 340 339 342 344 342 345 353 356 356 354 347 344 344 343 344 342 345 356 357 355 358 356 353 354 352 350 349 349 350 350 349 350
315 316 315 316 316 316 317 318 318 319 318 318 320 320 319 324 332 330 322 320 323 322 320 321 320 322 324 324 324 324 323 321 320 323 326 331 334 332 328 328 329 329 330 330 330 330 330 328 329 331 330 331 333 333 334 336 337 337 344 348 340 341 351 353 348 347 346 346 345 342 344 341 340 352 358 353 353 353 351 353 352 350 350 349 350 350 350 349
318 317 317 317 317 317 318 318 318 318 318 320 320 319 323 324 324 326 327 324 321 321 322 321 321 324 325 324 325 324 322 321 320 321 324 328 332 332 328 328 329 327 326 327 328 328 329 329 329 329 328 330 332 335 337 338 337 339 343 344 339 337 343 346 344 344 345 345 343 342 343 341 341 347 349 347 348 348 348 349 349 349 349 349 350 350 349 350
319 318 318 318 318 318 318 318 318 318 319 321 319 321 328 324 321 325 327 323 319 320 324 322 320 323 324 324 325 323 322 322 321 320 321 324 329 330 326 325 328 327 325 327 325 325 327 328 328 328 328 329 331 331 332 335 338 339 338 338 338 337 339 345 345 341 343 342 339 342 344 341 341 344 347 347 343 344 345 344 346 347 347 349 350 349 350 349
321 320 319 319 318 318 318 318 318 320 321 320 320 324 325 322 325 329 325 324 323 321 322 321 319 320 323 325 325 323 322 322 321 320 320 322 325 326 324 322 324 327 327 325 323 324 324 326 329 330 328 329 332 328 329 340 342 338 339 337 335 336 339 344 344 339 340 341 336 336 340 342 342 344 348 343 337 339 343 344 345 345 346 347 348 349 349 349
322 321 320 320 319 318 319 317 318 321 320 320 325 329 326 324 326 327 325 325 323 320 319 318 320 321 321 323 323 322 322 321 320 320 320 321 322 324 324 322 322 325 326 323 322 324 321 322 329 328 326 331 335 332 333 342 341 337 339 337 332 336 339 338 338 339 337 336 337 337 340 346 348 347 347 341 338 339 341 343 344 343 345 345 346 348 348 348
323 321 320 320 319 319 319 319 320 321 320 321 323 325 329 329 323 323 326 322 318 318 318 319 323 323 319 320 321 321 321 321 321 320 319 321 321 321 323 322 322 323 323 323 324 325 320 322 330 328 326 331 335 337 338 336 337 337 334 333 333 335 339 334 331 335 332 330 338 337 336 344 343 341 347 347 345 345 342 345 344 343 345 344 345 346 346 347
321 321 321 320 320 319 319 319 321 320 320 321 323 325 331 327 321 323 325 319 316 318 318 318 321 322 319 318 320 321 321 321 320 319 319 319 319 320 322 321 321 321 323 322 324 326 322 321 327 328 327 328 328 333 337 335 337 338 332 334 333 330 337 336 328 328 328 329 338 335 333 340 338 338 348 350 350 349 346 347 345 343 344 344 345 346 345 347
321 321 321 320 320 319 319 321 321 320 321 324 328 333 331 323 318 320 320 317 317 318 318 318 320 321 320 318 320 321 320 321 321 319 319 318 319 321 321 322 321 320 322 321 322 326 323 319 325 328 326 327 330 330 331 332 335 337 336 337 334 331 333 331 327 328 326 328 335 334 332 337 336 340 346 347 352 351 347 348 349 346 345 343 344 345 345 346
322 322 321 320 319 319 320 321 319 320 321 323 329 330 323 320 320 318 317 318 317 318 319 319 320 321 320 320 321 321 320 320 320 320 319 317 319 320 320 322 322 319 320 321 323 326 325 320 323 329 324 326 335 331 326 330 335 335 335 334 334 336 334 328 327 328 326 330 334 329 328 335 340 344 345 347 353 348 345 350 350 345 344 343 345 345 345 346
323 324 323 319 319 320 321 320 321 323 323 322 327 328 320 319 321 318 318 319 317 319 320 320 319 321 322 323 322 320 320 321 320 320 319 318 318 320 319 321 323 321 319 320 323 325 325 321 321 328 327 323 329 333 331 334 337 335 334 332 331 333 332 328 327 326 325 334 337 327 326 339 349 348 344 347 349 342 344 349 346 344 343 343 345 344 345 346
326 327 324 319 318 320 321 321 322 325 328 325 324 325 322 321 322 321 321 320 319 319 319 320 320 320 321 322 322 321 322 321 320 319 319 318 318 319 320 320 322 323 320 321 324 322 323 324 320 321 322 321 324 332 338 339 339 337 336 334 332 332 331 328 329 330 327 329 335 330 323 337 355 349 341 344 347 341 342 345 345 343 342 343 345 344 344 345
328 330 326 320 319 321 321 323 324 324 328 328 323 321 322 323 324 324 321 320 320 320 318 319 320 320 320 321 321 321 322 323 320 319 321 319 320 321 321 320 320 322 322 322 323 323 327 328 322 318 321 323 324 327 331 335 338 336 335 337 337 335 333 328 328 334 329 323 331 331 323 337 362 353 341 342 341 339 339 341 342 342 342 343 344 345 344 344
326 326 326 321 318 321 323 326 331 331 329 327 326 325 325 323 323 323 322 321 320 319 318 319 319 320 321 320 320 320 321 322 321 322 323 321 321 321 320 319 320 322 325 323 322 324 327 326 321 322 328 330 329 328 327 329 335 337 336 337 336 334 334 332 333 339 330 322 328 328 324 340 363 358 349 342 335 336 338 339 341 340 341 343 342 344 345 344
324 324 325 322 318 322 326 328 333 336 334 330 330 330 328 325 324 325 324 322 320 319 319 321 320 320 321 320 320 321 321 320 321 323 322 322 322 321 319 319 321 323 324 323 326 324 324 326 323 320 324 327 328 332 328 326 332 341 343 337 335 337 334 331 333 332 327 326 330 328 328 343 358 356 355 349 338 339 339 337 341 340 339 343 342 342 344 343
325 326 325 321 319 321 325 327 329 333 336 332 331 330 328 327 327 326 326 324 322 321 320 321 321 319 322 321 319 323 323 320 321 322 323 325 324 323 320 318 320 324 322 324 327 323 324 331 325 319 320 321 323 329 332 333 332 336 340 336 335 336 330 331 331 324 326 332 333 332 335 343 352 352 354 352 343 343 343 337 339 341 339 342 342 341 343 343
325 328 328 325 322 319 322 325 325 329 333 331 330 330 328 328 327 325 326 324 322 321 319 321 320 319 321 321 321 323 324 323 323 324 329 332 330 328 325 322 320 319 323 329 326 326 333 334 325 323 323 321 324 334 342 339 330 328 333 332 334 334 330 337 334 326 335 338 333 345 348 333 337 350 354 356 348 344 347 341 337 340 340 340 342 342 343 343
322 325 326 325 325 323 324 324 321 323 326 325 329 331 328 328 327 325 326 324 324 323 320 319 320 321 322 321 323 326 329 333 332 331 334 336 336 335 328 326 323 319 331 338 327 327 335 328 323 328 325 321 327 336 340 333 325 328 333 329 331 335 332 334 330 331 344 333 326 357 364 332 332 350 353 360 356 347 347 341 336 339 340 339 341 341 340 341
320 320 318 319 325 328 327 324 321 323 325 324 329 332 328 327 326 325 326 326 326 325 323 324 327 329 326 323 327 331 335 340 338 336 340 337 339 341 334 334 331 326 337 342 331 330 332 323 324 326 324 324 326 330 333 328 324 329 332 330 331 335 333 332 332 337 342 328 325 353 361 338 337 345 345 351 350 344 343 339 337 339 339 339 340 340 340 341
316 318 316 316 320 322 322 322 321 324 328 328 331 332 327 326 326 323 324 326 328 327 326 329 332 333 331 333 338 339 336 336 334 336 341 336 336 340 337 338 335 328 333 334 328 330 328 328 333 326 321 326 326 326 330 326 325 326 326 327 330 333 334 333 335 338 336 332 333 340 343 342 340 339 343 344 340 339 340 338 339 340 339 339 340 340 341 340
314 316 316 316 319 318 319 321 322 326 331 330 331 329 323 324 325 321 320 324 329 329 327 327 330 331 332 334 339 337 333 332 333 334 336 334 336 338 336 339 336 331 334 334 331 330 324 329 339 328 319 325 327 327 328 324 327 329 329 332 331 331 333 331 332 337 335 335 335 331 335 341 339 345 356 349 340 343 344 341 340 340 339 341 340 340 342 340
314 314 313 317 323 323 323 322 321 326 330 328 328 327 323 323 322 319 320 323 325 327 326 325 327 331 333 334 334 332 328 327 330 331 331 331 332 333 333 334 332 334 340 337 336 338 330 329 335 329 321 323 327 325 325 326 331 331 334 338 336 332 334 333 334 336 334 333 332 330 331 334 340 357 362 353 348 351 348 343 343 342 341 342 342 342 343 342
313 313 312 316 322 324 322 322 321 324 327 324 323 322 321 322 319 318 323 326 324 324 325 323 324 330 337 335 330 328 324 323 326 326 326 327 328 328 329 329 328 330 337 340 339 341 344 339 334 328 323 323 327 328 326 326 325 327 335 339 337 339 339 336 338 338 334 333 333 331 331 339 356 364 366 364 365 363 353 345 345 345 344 343 342 343 343 343
Wind_Speed
12 13 13 13 13 13 13 14 14 14 13 13 13 13 12 12 12 11 11 11 10 8 6 7 8 9 10 10 11 11 12 14 14 17 17 9 9 11 11 17 20 21 21 19 18 18 19 18 16 14 15 14 10 9 10 6 1 1 1 1 2 2 2 2 3 2 2 3 2 5 8 6 4 8 11 10 9 12 13 10 8 7 6 11 14 19 24 24
12 12 13 13 12 12 13 13 14 14 13 13 13 13 12 12 12 11 11 11 10 9 7 7 8 9 9 10 10 11 13 14 17 20 14 7 11 14 15 19 21 23 22 20 20 18 16 19 20 17 16 13 8 7 5 3 3 3 2 1 2 2 2 3 4 4 5 6 1 4 7 6 4 9 12 8 7 11 11 7 7 9 13 14 16 22 24 25
13 12 13 13 13 13 13 13 13 13 13 13 13 13 13 12 11 11 11 11 10 9 7 7 8 9 9 10 11 12 14 16 18 15 7 10 17 18 18 20 22 23 21 16 16 14 8 15 21 19 17 12 8 6 3 4 4 4 3 1 1 3 4 3 4 6 7 6 3 3 9 8 6 10 10 6 8 9 8 8 6 10 20 21 22 25 25 25
14 13 13 14 13 13 13 13 13 13 13 13 13 13 13 13 11 11 10 10 10 9 8 7 8 8 9 10 11 11 14 14 10 6 4 11 20 21 19 20 23 23 21 13 13 15 7 13 21 18 15 8 6 6 4 6 5 4 4 1 2 2 4 3 4 5 6 6 5 3 9 8 6 9 8 10 9 4 9 12 8 13 26 26 27 28 26 26
14 14 13 14 13 13 13 13 13 13 13 13 13 13 13 13 12 11 10 10 10 9 8 8 8 8 9 10 10 12 11 5 2 6 4 12 19 21 20 21 23 22 22 18 17 19 12 15 21 15 10 5 5 5 4 10 8 2 5 4 2 4 4 3 5 5 3 3 4 1 6 7 7 6 7 11 7 5 14 15 9 17 28 28 30 30 27 26
14 14 14 14 13 13 13 14 14 13 13 12 13 13 13 14 13 11 10 10 9 9 9 8 8 9 9 10 11 12 7 2 5 8 0 13 19 20 20 21 23 23 23 21 20 21 16 19 20 12 7 4 5 5 3 10 10 3 4 5 3 5 4 1 1 1 2 3 2 2 4 6 7 4 5 9 6 9 18 15 8 18 27 28 31 31 29 28
13 13 14 14 13 13 14 14 14 13 13 13 12 12 13 14 13 12 10 10 9 9 9 7 8 8 9 10 11 11 9 7 7 5 5 15 19 19 20 22 24 25 25 23 23 23 20 21 20 11 5 4 4 6 5 7 10 4 3 3 2 2 1 1 3 5 6 6 3 2 5 5 6 4 2 7 9 13 16 11 9 21 29 30 32 32 30 29
14 13 14 14 14 14 14 14 14 14 14 13 13 12 12 14 14 12 10 10 9 8 8 7 7 8 9 10 10 12 11 8 5 1 9 18 20 20 21 23 24 26 26 24 24 24 22 22 20 12 4 5 5 4 5 5 6 6 4 2 2 0 0 2 6 9 7 6 2 3 6 5 6 4 1 6 12 13 11 9 12 25 32 32 33 32 31 30
14 14 14 14 14 14 14 14 14 14 14 14 13 12 12 13 14 13 11 10 9 8 8 7 7 8 8 9 10 9 6 5 3 5 13 20 21 21 23 23 26 27 26 24 23 24 23 20 18 14 4 6 7 4 6 4 3 7 5 2 3 1 0 3 7 8 6 6 1 3 5 4 4 4 0 7 13 10 7 8 16 29 33 32 34 33 32 30
14 14 14 14 14 14 14 14 14 14 14 14 13 12 12 13 13 13 11 10 9 8 7 7 7 7 8 8 6 3 3 6 2 10 16 20 22 23 23 22 26 27 26 26 25 24 22 15 13 12 4 5 5 3 6 4 2 6 6 6 6 3 1 3 6 6 6 7 1 2 5 1 5 4 0 8 13 8 7 9 18 30 33 33 34 33 32 30
15 15 15 15 14 14 14 14 14 15 15 14 13 12 12 13 13 13 11 10 9 8 7 7 7 7 7 8 5 3 2 7 1 13 18 21 23 23 22 22 24 26 26 26 26 23 20 14 9 9 4 4 4 2 5 4 2 8 9 5 5 5 2 3 7 6 4 5 2 1 4 2 4 3 2 8 12 8 9 11 18 28 33 34 33 33 33 30
16 16 16 15 15 15 14 15 15 15 15 14 13 12 13 13 13 13 11 10 8 8 7 7 7 8 8 11 13 8 5 7 1 16 21 22 23 22 22 21 21 22 23 24 26 23 18 11 7 9 4 5 4 2 2 4 2 8 7 1 1 5 2 2 3 5 2 3 4 2 3 0 2 3 5 5 9 11 12 15 19 26 32 34 33 33 33 31
16 16 16 16 16 15 15 15 15 15 15 14 13 12 13 14 13 12 11 10 8 8 7 7 7 8 8 9 11 9 8 7 3 17 23 23 24 23 23 22 22 23 22 21 23 23 18 10 7 9 9 7 4 5 5 2 3 5 2 0 1 2 1 4 1 5 2 2 3 2 1 2 3 8 10 5 7 12 15 19 21 24 31 34 32 33 33 33
16 16 17 16 16 16 15 15 15 16 15 14 13 13 14 14 13 12 11 10 8 7 7 7 7 7 8 7 7 8 9 6 5 18 24 23 24 24 24 24 24 25 22 17 16 18 17 11 8 10 12 10 8 6 4 1 2 2 1 1 1 2 0 3 2 6 3 2 2 2 1 3 3 9 14 9 7 14 18 20 22 24 30 33 32 34 34 34
17 17 16 16 16 15 16 16 16 16 16 14 13 13 14 13 13 12 11 9 8 8 7 7 6 6 7 8 8 9 9 8 8 17 23 23 24 26 26 26 25 25 24 18 12 11 10 8 10 11 10 9 8 5 2 2 1 1 1 2 2 0 1 2 4 6 3 2 1 1 1 3 2 8 14 10 7 13 19 18 21 24 27 31 32 33 34 35
17 17 16 16 16 16 16 16 16 16 16 14 13 13 13 12 12 11 10 9 8 8 7 5 5 4 4 5 7 8 9 9 9 15 23 24 23 25 26 26 25 25 25 20 13 11 8 5 8 8 7 4 3 1 3 3 3 2 1 2 1 1 2 2 2 4 4 6 2 0 1 2 2 5 10 10 7 12 18 16 19 23 25 30 32 33 34 35
17 17 17 17 16 16 16 16 17 17 15 14 13 12 11 11 11 9 8 9 9 8 6 5 4 4 5 5 7 9 10 10 10 15 23 26 25 23 23 24 24 25 24 20 15 10 7 6 5 4 3 1 1 2 3 3 3 3 1 1 2 2 2 1 1 4 5 5 3 2 1 4 4 4 6 8 9 12 17 16 19 23 24 27 31 33 33 34
17 17 17 17 17 17 16 16 17 16 15 13 12 11 10 9 6 5 6 8 9 6 5 7 5 1 6 10 7 4 6 10 11 15 21 27 25 20 20 21 19 20 18 13 12 12 9 6 3 2 1 0 1 3 1 3 2 1 1 1 3 2 3 3 2 5 8 4 4 6 4 8 8 6 7 7 10 13 17 17 19 23 25 26 29 32 32 34
18 18 18 18 17 17 16 16 16 16 14 11 10 9 6 4 2 1 5 10 11 6 2 8 11 3 2 8 9 3 0 6 10 13 19 26 24 17 15 15 13 15 11 5 6 9 7 3 2 2 2 4 5 5 7 8 4 1 2 2 2 3 3 5 3 6 11 6 5 7 6 8 9 7 7 8 11 13 16 17 18 22 26 26 27 30 32 34
19 19 19 18 17 17 16 15 15 14 13 10 8 5 2 1 1 1 5 12 16 11 5 6 13 11 4 0 5 2 1 4 9 12 17 24 24 17 13 12 9 10 8 4 3 6 7 3 4 6 8 8 7 8 9 9 5 3 3 3 4 5 5 4 3 5 10 6 5 8 7 7 8 7 6 8 12 12 13 16 17 21 25 27 27 29 32 34
20 19 19 18 17 16 14 14 13 13 12 10 6 2 1 1 1 1 3 9 16 18 16 15 15 18 14 6 5 2 2 2 7 11 14 21 24 16 12 12 7 5 5 5 4 4 7 4 7 12 12 8 5 7 7 6 5 5 4 4 5 4 4 3 2 7 9 3 3 5 5 8 9 7 6 8 10 10 14 15 17 21 24 27 29 29 32 33
20 19 19 18 17 15 12 12 12 12 11 8 3 2 4 3 2 3 4 7 13 17 20 21 20 22 21 17 14 10 7 3 4 9 13 20 23 15 11 10 5 3 4 5 3 1 3 6 13 13 6 3 6 7 6 7 6 6 4 3 5 4 2 3 3 6 8 1 1 5 6 8 8 7 6 8 10 12 17 18 19 23 24 26 29 30 31 32
20 20 19 19 17 14 11 11 11 11 10 6 1 5 7 2 2 4 4 5 11 15 18 20 23 25 23 20 18 16 11 6 5 11 16 21 23 18 13 9 4 4 4 4 5 3 4 7 11 8 2 2 7 7 6 7 6 5 4 3 5 4 3 2 1 5 6 2 1 4 4 5 5 5 5 10 14 13 16 20 20 23 26 28 31 31 31 32
21 20 20 19 17 13 11 11 11 10 9 4 3 9 8 2 1 4 5 4 7 10 13 17 20 23 25 19 13 14 13 10 8 13 20 23 23 17 13 10 6 4 4 7 9 7 10 9 1 2 3 5 6 7 6 5 5 5 5 5 7 5 3 1 3 5 3 2 2 4 1 4 4 5 6 7 11 11 13 17 18 21 25 28 30 31 32 32
22 21 20 20 18 13 11 11 9 6 5 3 5 9 7 2 3 4 3 2 4 5 5 9 13 18 23 17 13 14 11 11 13 15 21 27 26 16 9 10 8 5 7 8 7 6 13 12 3 1 3 5 5 6 6 4 5 6 5 10 12 8 3 7 9 7 2 2 3 4 2 5 4 5 7 4 6 9 10 12 16 21 24 25 27 29 31 31
22 22 21 20 18 14 10 7 4 3 2 4 7 8 6 2 4 2 2 2 3 4 0 4 7 10 16 16 17 13 4 9 17 17 20 26 27 17 8 7 5 6 7 5 3 3 8 9 5 7 6 5 5 6 7 6 4 6 5 8 8 5 7 10 10 5 2 2 4 5 4 3 4 4 7 6 6 10 9 9 15 21 23 25 27 28 30 31
22 22 21 20 18 15 11 5 4 4 2 5 8 8 5 2 3 2 1 4 3 3 2 5 4 7 12 15 22 15 2 7 12 15 22 24 25 19 9 5 3 5 5 5 3 3 4 4 5 7 5 4 5 5 5 7 4 5 5 3 3 6 9 11 9 3 3 2 1 3 5 1 4 5 5 7 7 8 9 10 12 18 23 26 28 28 30 32
22 21 20 19 17 15 13 8 6 5 4 6 8 8 4 2 2 2 3 3 2 1 2 4 3 6 9 15 27 16 3 12 10 12 24 23 21 16 6 7 7 6 6 7 5 3 3 6 6 7 5 4 6 5 6 8 6 7 5 3 1 5 7 7 6 2 1 2 2 2 5 1 4 6 1 6 7 8 12 14 13 16 23 26 28 29 30 32
23 22 20 19 17 14 12 9 5 4 7 8 9 8 5 3 3 2 4 1 2 1 2 4 4 6 9 14 23 15 4 10 6 11 23 22 22 14 5 11 10 4 6 7 7 4 1 5 6 6 5 5 7 5 6 8 7 6 1 6 6 5 5 4 4 2 3 2 2 5 6 2 4 5 1 4 5 10 13 13 13 18 24 27 28 30 31 31
24 21 19 18 16 12 10 7 4 5 9 10 10 8 4 3 2 4 2 1 1 1 1 5 4 6 10 8 10 11 4 2 4 15 20 17 22 17 6 10 8 2 3 5 7 8 5 4 2 3 5 6 6 5 7 9 8 3 3 6 6 5 5 4 2 3 3 3 3 6 10 5 2 5 3 5 5 9 12 10 11 16 22 27 29 31 32 32
22 19 17 17 13 10 8 4 5 7 9 11 10 8 5 3 3 4 2 2 0 1 2 2 2 6 11 6 3 7 4 2 5 14 11 7 13 11 2 3 4 1 2 5 6 7 7 5 4 4 8 5 2 2 3 6 7 3 2 3 3 4 4 4 4 4 1 4 5 3 8 7 2 5 5 7 6 5 9 11 12 14 19 27 30 31 32 33
18 15 14 14 10 7 4 3 6 8 9 10 10 9 6 2 1 1 3 4 2 1 1 1 2 5 9 5 1 5 2 0 3 8 7 6 6 7 5 5 5 2 3 5 4 5 5 6 4 5 8 6 3 2 4 3 2 4 3 4 3 2 3 3 2 1 1 5 4 3 6 3 5 7 7 10 10 7 9 13 15 16 21 27 30 32 32 32
14 11 10 9 5 3 5 7 8 9 9 11 12 8 5 4 2 3 3 3 1 2 3 1 1 4 8 5 2 3 2 1 3 3 4 6 6 7 8 5 7 6 4 4 3 3 4 6 3 2 6 7 8 3 2 2 1 4 4 4 3 2 1 2 2 1 2 4 3 5 5 2 4 7 8 12 14 13 15 18 21 23 26 30 32 33 32 32
10 7 5 2 2 6 9 10 10 10 10 12 10 5 4 2 3 3 2 3 2 2 3 2 3 2 7 6 4 6 4 3 3 3 3 4 5 6 6 4 6 7 3 2 3 4 3 6 3 3 3 5 9 8 6 4 3 4 3 4 4 4 3 3 3 2 2 3 3 2 3 3 3 4 7 9 12 15 19 21 20 21 26 30 31 31 31 32
7 5 2 2 5 8 9 10 11 10 10 10 7 4 3 3 3 1 1 3 2 4 6 5 0 3 4 3 3 7 6 3 3 4 2 5 5 6 6 6 7 5 4 3 3 2 4 6 6 5 3 5 6 5 6 6 2 3 2 4 2 5 5 2 2 4 4 1 1 1 2 4 4 5 5 3 4 9 16 18 15 15 20 23 25 28 31 33
8 6 5 5 5 7 8 10 10 9 9 7 5 2 3 3 1 2 0 2 2 4 7 6 3 4 1 1 1 5 4 1 3 3 1 3 3 5 7 6 7 7 6 5 3 1 3 5 5 3 3 5 7 6 7 7 3 0 2 3 2 3 6 2 1 0 2 1 2 2 3 5 3 5 6 4 2 5 8 11 14 16 19 20 23 28 31 33
10 9 9 7 4 5 8 11 10 9 7 6 4 2 4 2 2 3 1 3 4 4 3 3 2 2 2 1 2 5 4 1 2 3 2 2 2 5 6 5 7 10 9 8 4 2 3 5 5 2 5 9 9 7 5 5 6 5 3 5 1 3 3 3 0 3 3 1 3 1 4 5 2 3 5 3 4 5 6 8 9 13 17 20 24 29 32 33
10 12 13 10 6 7 10 11 10 8 5 5 1 2 2 1 2 2 3 4 3 3 1 1 2 1 2 2 3 4 6 4 3 3 3 3 4 5 8 5 6 12 15 13 6 2 3 3 7 4 6 6 1 4 1 3 3 4 3 4 3 1 0 1 2 1 1 1 3 4 4 3 3 4 4 2 6 7 6 7 8 10 15 20 25 29 30 30
6 10 12 11 7 9 12 10 7 5 4 3 1 3 1 3 5 5 6 5 2 1 1 2 2 1 1 2 3 3 5 6 5 4 3 3 4 5 8 7 6 11 16 15 8 2 4 2 6 4 4 3 4 3 3 3 2 2 2 2 1 2 4 2 2 3 2 2 2 3 4 3 5 5 5 7 8 8 9 9 9 11 17 24 27 28 29 29
5 7 10 10 8 10 10 7 5 4 3 2 3 2 1 3 6 9 11 6 2 2 2 2 1 2 3 2 2 2 3 3 5 5 3 4 4 5 7 8 5 7 12 14 9 3 2 2 4 5 3 2 2 2 5 5 2 2 2 3 1 0 2 2 0 1 2 3 2 1 3 5 6 4 6 8 8 10 12 12 11 13 21 27 29 29 30 31
6 5 7 8 8 9 6 4 3 3 2 1 2 2 3 4 6 12 15 8 5 6 6 4 3 3 2 2 3 1 3 3 4 4 2 5 6 4 8 13 8 6 8 8 6 5 3 2 3 5 5 3 6 6 6 6 6 5 5 6 5 2 3 2 2 2 1 2 3 2 2 7 6 3 5 7 7 10 13 12 11 15 24 28 30 31 32 33
6 3 4 6 8 5 3 2 1 2 2 0 2 3 6 7 5 7 10 6 4 6 6 4 4 4 3 3 3 2 3 3 4 4 3 6 7 5 9 15 15 12 10 6 6 7 5 4 4 6 5 6 10 7 6 7 6 5 4 5 6 4 4 4 3 3 0 0 1 3 1 6 6 3 4 6 5 8 12 12 12 18 27 29 30 31 31 32
7 4 3 5 7 2 4 1 2 3 1 2 5 6 7 5 4 4 6 3 3 4 2 2 4 4 4 4 3 2 3 3 4 5 4 4 6 10 13 17 18 13 7 3 3 5 4 3 3 4 5 5 9 6 3 4 3 4 3 3 5 4 5 5 4 3 2 2 1 2 1 6 6 3 3 5 6 6 10 13 14 17 23 26 27 28 29 30
6 5 4 6 8 1 4 1 1 3 3 4 5 6 6 5 4 5 4 3 3 2 1 3 4 3 3 3 2 3 2 2 2 4 3 2 4 9 13 20 19 10 7 7 6 7 5 2 3 2 4 5 7 6 3 3 1 3 3 4 6 5 5 4 2 3 1 4 4 3 3 7 6 4 6 3 4 5 7 14 17 18 19 22 25 26 27 28
3 4 4 3 6 2 2 1 0 1 3 4 4 5 6 4 5 9 9 7 7 5 2 4 4 2 3 1 0 3 2 1 2 2 0 1 3 4 4 16 19 11 11 14 15 14 7 3 5 5 4 4 3 2 2 3 2 1 2 6 8 8 8 5 2 3 2 4 4 4 4 7 7 6 7 5 2 5 7 13 17 18 18 20 23 25 26 26
2 2 2 2 2 2 2 2 2 1 1 3 3 4 4 3 5 10 9 7 8 7 5 5 4 2 3 2 1 3 2 1 1 1 2 2 4 3 2 7 15 13 9 11 19 15 3 2 7 8 8 8 8 7 5 3 3 2 3 4 8 10 9 6 4 4 4 3 2 5 6 5 9 7 5 6 3 6 7 9 15 20 19 18 20 22 22 24
3 0 1 2 1 2 3 3 5 2 1 2 1 3 3 3 5 8 5 3 5 5 4 4 2 1 3 3 2 0 2 4 3 2 2 3 4 5 4 3 10 12 9 10 20 12 3 2 7 8 11 12 9 8 5 2 3 5 5 4 7 9 9 7 5 5 5 4 4 8 5 4 9 9 6 7 6 6 7 9 16 21 19 16 16 16 18 20
3 1 2 2 1 1 0 3 4 3 3 2 2 2 3 4 5 5 5 5 7 7 3 1 3 4 4 3 4 1 3 4 4 3 3 3 4 5 5 3 4 4 3 9 16 9 4 4 6 7 11 12 8 7 6 4 2 2 2 5 8 10 10 9 7 6 7 6 6 6 5 6 9 9 8 9 7 6 8 12 17 16 14 14 14 14 15 17
4 2 1 3 1 2 2 4 4 4 3 2 2 2 3 4 5 4 4 4 6 7 5 4 6 9 6 2 4 3 1 2 2 3 2 3 4 4 4 3 3 4 5 6 8 3 3 4 5 7 9 10 6 7 8 6 2 1 1 5 8 10 10 9 7 6 7 6 7 5 4 8 10 8 8 7 7 6 5 9 13 13 14 16 15 14 14 14
6 4 3 4 3 3 4 4 3 2 3 2 1 2 3 3 4 6 5 3 4 6 7 6 9 10 5 4 5 4 2 2 1 3 2 1 3 2 1 1 3 5 6 4 1 1 2 4 3 6 4 6 5 7 6 4 4 3 2 3 5 9 7 4 3 3 4 2 7 3 4 9 9 6 4 5 7 5 4 8 12 13 16 16 15 14 13 13
6 6 7 4 2 3 2 3 2 1 1 2 0 2 3 2 5 8 6 5 3 3 5 8 10 8 3 4 5 3 2 3 6 9 8 4 4 4 2 2 2 4 6 2 1 2 1 2 1 5 3 4 4 2 1 2 2 3 2 4 1 5 4 2 1 2 3 3 5 3 2 8 7 3 1 3 7 7 6 7 10 12 14 16 15 14 13 13
6 5 6 3 1 3 2 3 3 1 1 2 1 2 3 4 7 8 5 4 3 4 9 10 8 5 3 4 5 7 12 14 15 18 17 14 12 11 10 8 5 3 3 1 2 1 2 3 2 4 3 4 4 4 6 5 4 1 4 3 1 2 1 3 1 2 2 4 2 2 6 7 5 2 4 3 4 6 6 6 9 12 14 15 15 15 14 13
Wind_Direction
327 328 327 328 331 332 333 334 332 334 337 338 337 336 336 337 340 342 339 335 333 326 304 286 278 272 269 270 270 270 271 268 269 263 258 250 221 215 199 194 191 185 182 181 186 184 172 172 175 170 172 180 201 211 216 244 267 114 97 161 246 235 224 229 241 261 306 284 200 174 198 200 174 164 153 145 143 136 145 148 131 113 130 169 172 161 159 161
322 322 321 321 324 326 329 331 331 333 335 337 334 334 334 334 336 338 338 334 332 326 305 290 282 277 277 275 277 280 278 277 277 270 261 229 205 202 196 192 191 191 188 188 194 193 180 176 174 166 171 185 208 224 233 226 185 181 170 216 237 240 234 250 292 298 292 283 251 166 188 193 189 164 152 146 132 135 148 163 144 118 132 154 162 162 162 164
321 321 317 316 318 319 322 326 329 330 333 334 332 331 331 330 333 335 336 333 330 325 308 293 286 286 283 281 289 287 289 295 287 278 266 214 197 189 192 190 191 198 197 202 205 201 196 184 176 165 172 191 210 204 193 196 205 202 201 254 228 266 263 255 293 279 277 284 299 194 179 173 182 170 155 138 128 140 164 175 170 138 140 150 158 162 165 169
321 320 316 316 316 314 315 318 322 327 331 332 331 329 327 327 330 332 332 331 328 324 311 293 289 291 289 292 296 295 304 310 293 291 289 210 189 182 187 186 189 196 196 204 199 189 191 183 172 164 174 196 220 202 194 203 199 176 197 247 136 246 272 274 313 293 282 283 286 216 169 157 162 166 149 132 128 150 187 181 176 154 152 154 160 165 168 173
321 320 317 317 316 313 310 311 313 319 325 329 330 327 326 326 326 330 329 328 326 322 313 294 292 293 294 299 298 303 316 333 339 332 300 195 182 178 181 182 186 190 190 192 188 181 181 177 168 164 178 205 224 213 214 204 201 187 227 253 199 215 262 312 343 327 286 260 280 188 140 135 138 144 147 150 146 173 184 182 172 162 163 162 164 169 173 175
323 320 317 316 315 313 309 308 308 310 316 322 326 325 325 324 322 327 325 326 323 319 312 292 292 293 295 303 301 305 306 299 332 337 219 176 174 172 175 178 180 185 186 184 184 180 177 172 168 170 189 222 224 220 215 195 202 224 249 267 274 243 260 351 26 1 109 94 20 53 89 121 124 95 150 166 162 164 178 185 179 172 172 171 170 173 176 177
325 323 318 317 315 313 311 310 306 305 308 312 319 322 323 321 320 323 323 323 320 317 310 292 291 292 298 303 303 304 287 290 331 354 149 167 166 167 174 174 176 184 183 182 183 180 176 172 173 179 195 235 224 227 232 194 198 212 280 304 356 245 273 37 134 115 90 71 46 51 58 91 91 64 164 184 170 163 181 190 182 176 173 173 174 176 179 179
326 326 321 321 318 315 313 310 307 305 305 306 310 316 320 318 315 318 321 319 316 314 305 293 288 287 299 302 306 309 296 301 334 83 159 165 164 166 171 171 177 184 183 186 187 181 176 175 181 184 193 241 230 227 214 184 196 210 254 291 72 331 10 108 116 101 81 71 94 47 50 74 65 55 190 206 180 164 179 182 170 172 171 173 177 180 181 181
324 325 323 323 320 317 313 310 308 305 304 304 304 308 314 314 312 313 316 315 313 309 302 294 283 284 295 298 309 312 304 330 318 175 165 169 168 170 174 176 180 185 184 187 189 184 179 179 188 187 191 251 245 243 188 165 214 209 215 117 97 290 272 117 103 90 73 76 129 31 67 100 49 46 84 213 192 171 176 173 166 170 171 175 179 182 184 184
322 323 322 322 321 317 315 311 307 305 304 302 301 303 307 307 306 308 311 313 307 302 298 288 276 280 289 294 314 299 278 340 309 172 170 176 173 172 180 183 182 185 186 185 188 190 188 184 189 192 219 273 261 248 182 183 226 173 159 119 130 196 191 122 112 99 83 87 161 19 78 80 7 17 202 194 189 185 194 176 165 171 175 178 181 185 187 188
320 321 319 320 320 318 316 313 307 304 302 300 300 300 301 300 300 302 306 307 300 296 291 282 274 272 282 283 270 218 278 340 191 172 174 181 184 180 183 188 187 187 188 188 192 198 197 190 180 182 217 294 288 261 189 228 234 144 141 123 125 135 122 145 129 121 99 100 177 82 75 27 358 342 234 183 181 200 211 186 169 174 178 181 184 187 190 192
318 317 317 317 317 316 316 314 310 305 301 299 300 299 297 294 294 297 301 302 293 289 282 276 272 266 279 277 260 244 277 329 195 175 178 187 194 188 184 191 193 191 191 192 194 197 196 195 193 190 224 311 318 307 246 255 202 144 148 175 104 108 107 274 113 129 125 101 180 152 74 287 302 255 229 187 197 222 217 191 175 175 180 183 186 189 192 195
316 316 316 315 313 314 313 313 311 307 301 298 300 300 294 289 291 294 295 294 285 279 277 272 269 267 277 275 266 257 261 296 219 179 182 190 195 190 186 191 194 192 193 194 195 196 190 186 206 226 263 292 296 299 292 263 149 144 148 105 1 47 70 286 1 140 125 47 171 146 54 237 251 245 234 217 214 214 200 186 176 174 180 184 187 190 194 197
317 317 317 315 313 311 310 312 312 309 302 299 302 299 291 289 290 290 288 286 276 269 271 265 263 268 268 261 266 267 255 268 217 187 186 190 193 193 191 191 193 193 192 189 189 199 201 199 223 259 281 279 275 292 308 322 127 147 330 69 25 9 222 268 211 161 132 35 171 92 4 234 245 246 235 230 219 194 182 180 177 173 179 184 188 191 195 198
317 316 317 316 313 310 308 309 310 309 304 302 304 299 293 292 289 287 283 275 262 257 258 257 256 260 271 266 258 262 251 242 218 192 191 194 194 196 195 193 194 195 196 186 165 177 200 227 249 263 278 275 275 296 339 334 13 67 301 333 5 108 267 291 194 183 146 121 156 41 284 250 250 247 235 230 224 189 177 178 179 175 177 184 189 192 196 201
317 317 317 315 313 310 307 306 308 308 307 306 306 302 299 297 289 284 274 259 249 244 238 243 242 239 277 270 241 248 245 228 214 194 195 200 199 200 198 194 195 198 200 193 173 166 183 250 275 266 266 263 257 318 354 328 338 6 208 260 316 149 280 329 183 208 144 126 135 346 248 279 262 259 243 226 220 191 179 180 185 181 178 183 189 193 197 201
319 318 316 315 312 311 307 305 306 306 308 312 310 308 308 303 292 280 260 239 227 219 212 209 214 241 255 244 235 245 238 217 207 198 197 201 201 203 201 195 195 201 204 203 203 208 223 260 282 275 265 257 175 96 18 325 304 327 31 252 263 172 203 285 206 208 156 136 160 162 226 262 261 298 271 224 206 192 183 185 190 186 183 185 188 193 197 200
322 319 316 314 311 310 308 305 304 303 309 315 315 319 320 312 300 270 234 213 198 188 209 205 173 256 248 226 215 219 228 218 210 200 198 201 200 204 206 198 196 199 202 211 222 232 245 258 265 287 307 300 166 126 148 258 225 206 179 242 274 231 191 212 236 181 166 161 165 161 222 254 258 288 293 246 204 193 191 192 193 190 190 190 190 193 196 199
323 320 316 313 311 309 308 306 303 302 308 315 322 330 327 321 335 209 195 188 179 160 207 201 181 173 258 219 203 159 311 219 211 206 200 200 198 199 204 199 193 187 178 183 227 220 215 241 273 291 267 225 215 185 206 231 217 202 216 193 247 273 247 214 224 177 164 160 176 181 207 243 253 259 276 254 206 196 198 199 198 195 195 196 195 197 198 199
322 320 315 313 310 309 309 306 302 301 306 311 325 331 303 317 53 163 196 204 206 206 233 219 208 227 282 84 185 177 1 198 209 212 201 199 196 186 182 179 169 171 166 144 187 196 181 209 248 237 240 228 220 218 223 242 264 302 293 276 264 274 278 232 211 179 160 155 200 199 209 238 250 251 256 230 201 196 199 199 201 199 198 200 201 202 202 203
324 320 317 313 310 311 310 306 299 298 303 307 321 333 179 66 115 216 265 246 238 233 244 253 247 248 255 251 204 198 352 199 210 214 204 197 189 177 170 166 146 169 193 148 127 177 175 208 240 232 239 240 245 245 244 267 278 278 278 291 286 264 272 276 165 169 164 153 214 190 210 244 243 246 246 212 195 198 200 197 201 202 201 202 204 206 207 208
325 321 319 316 313 314 312 305 295 293 298 299 320 130 146 94 44 315 307 280 266 251 246 248 251 252 249 243 236 248 280 270 202 196 194 186 183 181 169 166 163 174 171 137 123 164 186 240 245 238 241 240 259 262 262 275 269 265 265 284 288 252 237 358 57 155 170 165 263 179 202 244 246 243 238 212 204 209 208 204 203 203 203 204 206 208 209 210
326 323 321 319 317 318 316 303 290 292 293 289 259 162 171 147 355 317 280 271 282 266 251 242 240 243 243 241 238 241 249 244 195 185 185 178 182 185 169 166 185 158 132 161 177 181 218 245 243 237 191 200 259 269 266 276 271 262 243 249 277 238 184 302 25 154 176 182 132 163 205 262 264 249 248 220 212 213 213 213 211 208 206 207 209 210 210 211
327 324 322 321 320 322 321 304 291 291 286 274 168 179 184 178 287 293 252 242 286 274 257 244 236 237 238 237 232 225 226 227 208 189 186 179 176 178 178 177 171 166 175 189 191 206 236 246 234 109 173 203 258 273 268 277 272 265 230 225 258 242 191 189 150 140 172 237 137 109 23 297 250 226 246 224 208 213 214 213 216 216 214 212 211 212 214 215
327 323 322 320 320 324 323 306 293 290 277 223 177 187 186 202 290 299 246 250 291 279 270 238 228 234 231 225 222 216 214 226 221 198 189 187 179 166 176 182 168 196 203 188 192 222 247 255 269 299 229 197 231 260 256 249 268 288 242 219 241 242 148 121 141 132 96 270 217 116 56 298 266 225 230 210 195 211 209 207 214 218 218 217 215 215 216 218
325 321 319 317 317 322 320 305 286 300 283 191 183 180 179 244 313 291 170 40 315 262 232 175 203 219 210 206 204 191 178 234 228 210 194 195 190 172 163 175 170 209 192 166 193 227 249 251 228 235 237 195 216 255 245 225 250 294 251 213 225 209 137 141 156 147 126 214 219 152 144 279 303 256 225 194 196 213 208 210 217 216 216 217 218 218 218 218
322 318 316 312 312 315 312 299 272 287 274 181 180 176 187 275 322 243 136 31 324 240 142 167 186 186 191 193 182 165 110 204 202 208 200 195 191 182 176 174 172 209 166 126 224 230 209 209 202 218 214 186 219 250 224 199 205 265 266 247 193 157 155 164 158 148 173 165 289 155 140 301 299 270 222 174 190 221 220 221 221 217 216 217 219 220 220 220
319 315 312 306 304 305 302 294 278 268 224 194 189 184 201 270 251 172 91 43 262 203 128 175 164 162 180 180 176 170 132 156 160 207 202 193 189 182 184 193 186 198 166 148 214 245 148 187 203 197 189 198 222 229 187 175 206 252 281 345 58 144 154 161 143 116 112 90 340 195 141 134 272 282 287 156 187 224 226 223 221 217 216 216 218 220 222 223
317 314 309 299 295 292 290 290 281 236 206 201 192 190 209 231 209 125 82 66 224 224 130 148 135 161 163 161 179 192 172 161 169 186 186 188 191 187 206 209 197 191 193 191 221 254 214 211 205 172 179 216 226 224 180 176 218 247 67 56 49 79 96 97 117 88 44 28 265 194 156 149 269 279 28 134 203 225 224 223 220 217 216 215 217 219 221 223
319 314 303 292 289 281 279 279 251 211 197 193 188 191 193 179 137 74 72 243 213 302 100 144 147 158 152 141 189 216 227 203 137 151 168 183 190 198 222 209 196 147 230 252 250 253 267 280 273 170 193 214 218 217 189 194 215 226 80 75 52 43 64 57 64 74 50 312 268 192 170 147 295 278 199 175 214 211 209 219 219 218 217 216 217 218 220 222
320 310 294 287 283 271 269 251 213 205 193 186 185 181 159 129 76 84 162 253 287 9 45 147 143 130 151 149 197 217 240 324 127 142 158 169 182 204 237 176 187 143 283 283 271 276 285 287 286 231 226 217 199 247 240 227 214 185 92 97 61 2 14 26 16 45 83 261 284 209 163 144 204 265 225 218 240 194 191 209 211 211 214 216 217 218 219 221
318 302 290 284 276 261 241 174 181 190 186 180 172 166 145 93 33 143 238 304 3 304 344 147 136 127 160 174 199 207 206 280 164 147 153 149 164 199 199 182 178 164 258 250 262 314 292 253 253 256 246 218 189 285 318 312 200 151 105 84 72 347 352 3 339 8 205 245 269 140 129 147 233 253 246 235 242 218 197 208 207 204 209 213 216 217 218 219
317 308 301 284 272 217 179 166 166 170 173 169 158 149 108 81 210 221 266 321 58 258 297 59 169 148 160 177 205 190 170 232 212 162 146 150 158 193 210 211 176 167 208 221 237 300 296 279 265 265 262 212 187 206 272 294 187 168 152 118 117 114 35 281 270 300 260 270 274 147 145 235 266 267 249 233 233 218 206 211 210 205 206 211 215 216 217 217
329 340 332 276 168 162 175 175 166 158 160 159 145 116 91 120 229 235 280 283 272 282 301 306 279 158 152 179 192 160 170 248 200 134 104 135 154 193 219 234 192 173 159 162 203 201 233 285 242 194 247 189 181 197 193 168 166 198 170 128 153 160 168 214 213 205 229 278 307 145 168 202 212 252 238 232 240 218 204 210 211 209 210 212 213 213 215 216
3 31 41 99 141 162 172 171 165 153 153 153 121 75 133 190 253 240 265 281 302 318 310 307 11 105 136 202 201 163 169 228 174 124 123 158 170 191 193 210 205 170 138 172 227 180 195 260 249 231 229 154 170 201 164 127 146 238 128 102 192 184 157 173 186 178 174 189 307 219 227 218 211 259 278 276 251 205 195 198 195 202 210 208 207 209 212 215
40 70 74 78 137 162 158 158 156 147 149 139 91 68 193 213 214 161 217 315 304 312 323 335 56 86 96 216 207 184 173 183 164 148 179 180 189 197 190 205 199 174 154 174 220 168 177 263 277 277 269 209 199 187 153 150 169 222 131 162 230 159 132 120 277 251 113 166 273 223 252 291 311 298 315 14 102 164 180 184 182 191 198 199 203 208 212 214
59 72 74 74 117 140 137 143 139 141 144 113 95 197 223 236 193 181 307 327 294 298 354 354 356 90 126 160 213 188 163 110 169 181 215 218 222 197 196 220 195 182 182 185 217 212 178 269 283 221 254 256 221 180 164 178 152 119 190 206 156 65 89 97 322 350 46 240 277 244 244 288 335 299 319 33 124 167 176 175 176 183 188 197 206 209 213 215
66 69 64 61 89 117 127 132 126 132 127 88 75 248 232 235 220 237 306 323 304 309 47 260 260 94 107 182 234 184 162 176 196 185 186 215 247 199 180 202 196 191 193 187 208 243 156 264 287 228 229 277 288 135 171 280 175 145 188 174 130 130 242 94 166 192 94 225 283 299 284 266 206 233 278 225 185 185 173 169 175 180 188 200 209 211 213 214
71 62 44 43 81 116 123 121 113 112 99 90 237 266 240 254 264 277 304 316 298 291 276 243 245 344 9 200 206 183 170 180 178 176 175 182 235 216 185 192 200 198 192 178 186 229 139 198 287 265 225 288 12 99 185 273 314 52 103 132 126 158 167 171 161 162 172 187 256 309 321 272 228 224 223 215 201 179 168 175 185 191 196 202 208 209 210 211
73 60 36 42 90 120 120 108 84 72 77 135 200 254 270 280 285 293 304 307 268 255 248 237 250 303 304 261 215 186 170 171 166 180 196 177 209 238 204 196 191 185 183 175 180 195 133 175 259 287 310 315 305 196 183 186 162 133 170 187 231 101 142 178 166 118 146 154 180 278 308 272 252 219 207 214 198 179 180 183 188 196 199 204 208 208 208 210
70 70 34 47 103 122 108 82 53 61 79 147 209 259 294 306 298 296 299 289 244 242 235 225 240 252 261 283 283 223 145 155 177 184 197 190 205 237 209 200 186 136 148 174 191 194 179 166 220 273 312 284 249 231 181 177 176 181 194 185 186 178 130 135 293 308 90 145 173 162 270 273 260 213 224 228 194 187 192 183 182 196 200 204 207 208 210 211
68 84 25 59 119 122 56 36 1 60 112 64 298 276 289 298 288 287 297 288 233 230 230 230 234 229 223 226 244 231 157 168 184 182 206 211 206 222 215 197 178 149 141 175 205 189 167 136 189 250 265 247 259 253 188 190 187 175 206 190 172 171 140 145 227 257 251 186 159 115 216 269 262 216 236 246 216 201 198 187 187 196 199 203 205 207 211 213
65 83 59 109 141 92 21 30 349 4 193 291 303 281 278 282 276 290 304 294 238 218 206 229 220 213 226 217 205 212 192 185 185 186 212 229 217 230 221 186 167 157 148 159 209 180 154 130 179 257 299 289 289 291 196 200 163 151 227 194 160 188 181 167 186 179 163 212 162 86 278 271 278 279 275 254 224 203 194 193 199 202 201 202 204 206 210 213
58 67 73 134 161 86 24 102 19 352 302 308 319 298 284 258 243 270 275 255 248 221 179 247 227 214 237 209 181 226 205 163 213 211 205 199 231 250 221 182 168 162 176 189 173 164 181 181 154 217 311 319 324 345 355 317 188 166 213 179 166 179 158 142 153 130 228 235 164 126 248 260 274 312 336 305 197 178 190 195 204 211 205 200 202 205 209 212
48 66 60 128 182 226 22 100 134 308 305 323 315 299 298 267 246 263 261 252 250 232 226 260 247 250 278 257 335 286 246 157 235 242 290 221 250 299 201 181 180 180 198 195 168 156 175 191 156 176 216 235 260 289 268 249 212 208 217 172 175 176 160 155 137 125 237 251 152 146 220 263 293 328 344 330 180 170 194 196 205 218 213 203 203 205 208 211
48 88 30 32 200 250 297 324 347 322 324 346 314 285 302 301 293 293 282 256 248 235 231 263 276 300 293 274 291 303 309 317 313 4 353 289 255 295 26 173 190 203 224 186 157 148 138 188 178 182 194 204 208 216 221 181 142 242 254 185 182 183 167 143 119 152 196 194 190 220 215 261 296 303 312 303 248 197 202 193 205 218 217 209 206 205 206 211
43 90 357 14 345 287 299 346 27 29 306 326 297 277 301 314 321 321 312 275 289 285 244 243 268 292 255 230 172 270 332 348 10 14 306 288 270 286 339 96 178 213 250 184 162 150 79 189 197 193 207 218 213 211 224 177 156 210 225 192 177 174 158 143 161 193 169 138 252 255 204 212 274 273 257 253 234 214 215 202 205 213 213 207 204 202 204 208
43 65 84 50 346 212 289 356 6 342 294 261 249 283 314 330 337 333 310 302 326 341 338 301 358 339 278 216 145 106 348 359 9 350 308 305 321 327 343 16 176 230 287 178 173 156 111 194 199 187 219 236 223 216 242 244 212 188 183 174 162 161 163 166 185 190 154 161 244 247 183 207 255 263 246 228 219 234 234 212 205 207 204 201 197 195 199 204
44 59 72 29 329 227 267 313 322 316 291 261 265 307 335 330 328 328 310 308 329 348 9 2 336 337 340 57 111 102 58 56 0 313 303 327 334 352 1 333 295 351 40 139 177 151 134 208 190 174 222 252 233 228 249 245 232 29 216 199 174 168 169 166 181 178 150 182 242 234 214 246 255 253 243 223 221 256 252 208 200 197 196 197 193 190 192 197
46 44 359 343 315 281 298 318 330 320 304 298 257 318 334 318 320 329 312 276 301 334 7 1 325 323 348 41 76 105 173 161 236 261 229 23 342 334 10 300 279 340 23 97 170 17 151 213 170 146 204 271 254 239 250 227 177 169 229 241 181 169 159 139 169 142 111 264 272 272 276 273 261 242 230 184 177 192 193 186 187 188 191 192 186 181 182 185
50 35 9 358 330 325 334 328 343 111 324 348 48 310 326 304 321 332 306 245 243 322 356 345 323 310 323 20 59 85 272 265 248 249 244 243 262 265 276 222 205 332 350 35 34 3 128 194 90 102 139 265 262 214 228 9 95 125 342 340 188 171 152 135 228 126 134 255 298 355 282 267 263 235 188 140 151 161 173 177 171 174 184 186 179 172 174 180
38 17 1 4 334 345 9 336 337 123 235 329 10 331 307 290 314 332 319 283 292 343 348 342 329 315 324 6 22 344 319 305 284 277 277 271 262 262 268 264 240 248 290 346 37 38 122 142 140 117 141 260 298 74 80 37 36 24 302 297 267 309 55 139 221 291 183 158 127 180 224 258 280 181 172 191 174 160 159 163 165 167 171 175 177 174 174 176